Bartlesville, OK

3:02 PM CST on November 21, 2019 (GMT -0600)
Bartlesville Municipal

Weather History for KBVO - October, 2019

Change the Weather History Date:

Monday, October 21, 2019

  Actual Average Record
Temperature  
Mean Temperature 57 °F -  
Max Temperature 69 °F 72 °F 89 °F (1978)
Min Temperature 46 °F 44 °F 26 °F (1987)
Degree Days  
Heating Degree Days 8    
Growing Degree Days 7 (Base 50)    
Moisture  
Dew Point 34 °F    
Average Humidity 48    
Maximum Humidity 83    
Minimum Humidity 19    
Precipitation  
Precipitation 0.00 in - - ()
Sea Level Pressure  
Sea Level Pressure 29.78 in    
Wind  
Wind Speed 6 mph ()    
Max Wind Speed 16 mph    
Max Gust Speed 29 mph    
Visibility 10.0 miles    
Events      
Averages and records for this station are not official NWS values.
T = Trace of Precipitation, MM = Missing Value Source: Averaged Metar Reports

Daily Weather History Graph

Daily Weather History Graph

Search for Another Location

Airport or City:

Astronomy

Oct. 21, 2019 Rise Set
Actual Time 7:36 AM CDT 6:39 PM CDT
Civil Twilight 7:10 AM CDT 7:06 PM CDT
Nautical Twilight 6:40 AM CDT 7:36 PM CDT
Astronomical Twilight 6:10 AM CDT 8:06 PM CDT
Moon No Moon Rise 2:50 PM CDT
Length of Visible Light 11h 55m
Length of Day
11h 03m
Waning Gibbous, 48% of the Moon is Illuminated
Oct 21
Waning Gibbous
Oct 27
New
Nov 4
First Quarter
Nov 12
Full
Nov 19
Last Quarter

Hourly Weather History & Observations

Time (CDT) Temp. Windchill Dew Point Humidity Pressure Visibility Wind Dir Wind Speed Gust Speed Precip Events Conditions
12:53 AM 55.0 °F - 46.9 °F 74% 29.58 in 10.0 mi North 3.5 mph - N/A   Clear
1:53 AM 51.1 °F - 46.0 °F 83% 29.62 in 10.0 mi Calm Calm - N/A   Clear
2:53 AM 50.0 °F - 45.0 °F 83% 29.66 in 10.0 mi Calm Calm - N/A   Clear
3:53 AM 48.0 °F - 43.0 °F 83% 29.70 in 10.0 mi Calm Calm - N/A   Clear
4:53 AM 50.0 °F - 39.0 °F 66% 29.70 in 10.0 mi WNW 6.9 mph - N/A   Clear
5:53 AM 48.9 °F - 37.0 °F 64% 29.70 in 10.0 mi West 5.8 mph - N/A   Clear
6:53 AM 46.0 °F 42.5 °F 37.9 °F 73% 29.71 in 10.0 mi WSW 6.9 mph - N/A   Clear
7:53 AM 46.0 °F 42.5 °F 37.0 °F 71% 29.73 in 10.0 mi WSW 6.9 mph - N/A   Clear
8:53 AM 52.0 °F - 37.9 °F 59% 29.76 in 10.0 mi West 8.1 mph - N/A   Clear
9:53 AM 55.9 °F - 39.9 °F 55% 29.79 in 10.0 mi WSW 12.7 mph 18.4 mph N/A   Clear
10:53 AM 59.0 °F - 36.0 °F 42% 29.77 in 10.0 mi West 11.5 mph 24.2 mph N/A   Clear
11:53 AM 63.0 °F - 36.0 °F 37% 29.78 in 10.0 mi West 9.2 mph 23.0 mph N/A   Clear
12:53 PM 64.9 °F - 36.0 °F 34% 29.78 in 10.0 mi West 16.1 mph 26.5 mph N/A   Clear
1:53 PM 66.9 °F - 33.1 °F 28% 29.78 in 10.0 mi West 16.1 mph 25.3 mph N/A   Clear
2:53 PM 68.0 °F - 30.0 °F 24% 29.78 in 10.0 mi West 16.1 mph 25.3 mph N/A   Clear
3:53 PM 68.0 °F - 24.1 °F 19% 29.78 in 10.0 mi West 12.7 mph 28.8 mph N/A   Clear
4:53 PM 66.9 °F - 23.0 °F 19% 29.79 in 10.0 mi WNW 10.4 mph 21.9 mph N/A   Clear
5:53 PM 64.9 °F - 23.0 °F 20% 29.81 in 10.0 mi West 9.2 mph 24.2 mph N/A   Clear
6:53 PM 61.0 °F - 26.1 °F 26% 29.84 in 10.0 mi West 5.8 mph - N/A   Clear
7:53 PM 59.0 °F - 27.0 °F 29% 29.88 in 10.0 mi WNW 5.8 mph - N/A   Clear
8:53 PM 55.0 °F - 30.0 °F 38% 29.92 in 10.0 mi West 5.8 mph - N/A   Clear
9:53 PM 54.0 °F - 30.0 °F 40% 29.96 in 10.0 mi Variable 4.6 mph - N/A   Clear
10:53 PM 52.0 °F - 30.0 °F 43% 30.00 in 10.0 mi WNW 5.8 mph - N/A   Clear
11:53 PM 51.1 °F - 30.0 °F 44% 30.01 in 10.0 mi Variable 4.6 mph - N/A   Clear